GPMPP EGKA-EGKA

Flight info

Callsign GPMPP
Flight time 0h 15m
Altitude 2000
Route LOCAL CIRCUITS
Aircraft C172/L-SDE/C

Departure

Time 2026-05-07 17:16
Airport Brighton City Airport (EGKA)

Arrival

Time 2026-05-07 17:32
Airport Brighton City Airport (EGKA)
Time Latitude Longitude Altitude Speed Heading
2026-05-07 16:50 50.83399 -0.29068 9 ft 0 kts 256°
2026-05-07 17:01 50.83399 -0.29070 9 ft 0 kts 253°
2026-05-07 17:01 50.83394 -0.29089 9 ft 2 kts 243°
2026-05-07 17:01 50.83393 -0.29092 9 ft 0 kts 240°
2026-05-07 17:06 50.83392 -0.29095 9 ft 2 kts 241°
2026-05-07 17:06 50.83406 -0.29145 9 ft 8 kts 306°
2026-05-07 17:07 50.83422 -0.29181 9 ft 2 kts 332°
2026-05-07 17:07 50.83434 -0.29186 9 ft 1 kts
2026-05-07 17:07 50.83444 -0.29178 9 ft 4 kts 46°
2026-05-07 17:07 50.83468 -0.29068 9 ft 14 kts 79°
2026-05-07 17:08 50.83491 -0.28931 9 ft 10 kts 73°
2026-05-07 17:08 50.83502 -0.28880 9 ft 0 kts 68°
2026-05-07 17:08 50.83502 -0.28878 9 ft 1 kts 68°
2026-05-07 17:08 50.83527 -0.28823 9 ft 12 kts 34°
2026-05-07 17:09 50.83569 -0.28811 9 ft 4 kts 353°
2026-05-07 17:09 50.83604 -0.28828 9 ft 6 kts 334°
2026-05-07 17:09 50.83639 -0.28887 9 ft 8 kts 303°
2026-05-07 17:09 50.83675 -0.28975 9 ft 10 kts 305°
2026-05-07 17:10 50.83731 -0.29104 9 ft 17 kts 304°
2026-05-07 17:10 50.83807 -0.29273 9 ft 17 kts 314°
2026-05-07 17:10 50.83882 -0.29334 9 ft 10 kts 358°
2026-05-07 17:10 50.83919 -0.29337 9 ft 1 kts 346°
2026-05-07 17:11 50.83918 -0.29341 9 ft 0 kts 207°
2026-05-07 17:13 50.83918 -0.29337 9 ft 0 kts 15°
2026-05-07 17:14 50.83922 -0.29336 9 ft 1 kts 15°
2026-05-07 17:14 50.83944 -0.29327 9 ft 6 kts
2026-05-07 17:14 50.83950 -0.29327 9 ft 0 kts 354°
2026-05-07 17:15 50.83964 -0.29336 9 ft 4 kts 320°
2026-05-07 17:15 50.83986 -0.29414 9 ft 10 kts 287°
2026-05-07 17:15 50.83945 -0.29488 9 ft 14 kts 197°
2026-05-07 17:16 50.83659 -0.29666 9 ft 70 kts 201°
2026-05-07 17:16 50.83180 -0.30004 251 ft 71 kts 210°
2026-05-07 17:16 50.82777 -0.30439 517 ft 64 kts 187°
2026-05-07 17:16 50.82321 -0.30785 634 ft 81 kts 210°
2026-05-07 17:17 50.81852 -0.30738 859 ft 75 kts 133°
2026-05-07 17:17 50.81549 -0.30046 1046 ft 74 kts 118°
2026-05-07 17:17 50.81338 -0.29278 1090 ft 75 kts 116°
2026-05-07 17:17 50.81118 -0.28506 1061 ft 79 kts 115°
2026-05-07 17:18 50.80967 -0.27708 1092 ft 76 kts 84°
2026-05-07 17:18 50.81422 -0.27191 1015 ft 89 kts 20°
2026-05-07 17:18 50.82001 -0.26951 1029 ft 87 kts 19°
2026-05-07 17:18 50.82590 -0.26713 1029 ft 87 kts 19°
2026-05-07 17:19 50.83173 -0.26493 1015 ft 88 kts 18°
2026-05-07 17:19 50.83749 -0.26302 1063 ft 78 kts 15°
2026-05-07 17:19 50.84297 -0.26167 1030 ft 80 kts 11°
2026-05-07 17:19 50.84855 -0.26130 986 ft 84 kts
2026-05-07 17:20 50.85385 -0.26396 910 ft 90 kts 310°
2026-05-07 17:20 50.85656 -0.27209 844 ft 78 kts 292°
2026-05-07 17:20 50.85808 -0.28048 692 ft 78 kts 265°
2026-05-07 17:20 50.85535 -0.28697 429 ft 73 kts 204°
2026-05-07 17:21 50.85057 -0.28865 292 ft 66 kts 191°
2026-05-07 17:21 50.84640 -0.29077 210 ft 61 kts 193°
2026-05-07 17:21 50.84242 -0.29305 136 ft 59 kts 197°
2026-05-07 17:21 50.83853 -0.29544 19 ft 57 kts 199°
2026-05-07 17:22 50.83512 -0.29747 10 ft 66 kts 200°
2026-05-07 17:22 50.83071 -0.30134 200 ft 74 kts 211°
2026-05-07 17:22 50.82709 -0.30754 470 ft 72 kts 228°
2026-05-07 17:22 50.82323 -0.31324 630 ft 79 kts 205°
2026-05-07 17:23 50.81868 -0.31048 803 ft 80 kts 117°
2026-05-07 17:23 50.81773 -0.30258 994 ft 73 kts 101°
2026-05-07 17:23 50.81612 -0.29471 1042 ft 74 kts 114°
2026-05-07 17:23 50.81434 -0.28678 1093 ft 76 kts 110°
2026-05-07 17:24 50.81352 -0.27850 1123 ft 79 kts 87°
2026-05-07 17:24 50.81727 -0.27195 1101 ft 90 kts 24°
2026-05-07 17:24 50.82288 -0.26943 1166 ft 84 kts 18°
2026-05-07 17:24 50.82862 -0.26745 1133 ft 82 kts 17°
2026-05-07 17:25 50.83443 -0.26530 1011 ft 86 kts 21°
2026-05-07 17:25 50.84011 -0.26276 949 ft 86 kts 21°
2026-05-07 17:25 50.84570 -0.26016 946 ft 81 kts 21°
2026-05-07 17:25 50.85064 -0.26412 770 ft 88 kts 295°
2026-05-07 17:26 50.85234 -0.27244 745 ft 74 kts 283°
2026-05-07 17:26 50.85334 -0.28040 578 ft 73 kts 259°
2026-05-07 17:26 50.84994 -0.28652 334 ft 71 kts 217°
2026-05-07 17:26 50.84599 -0.29082 258 ft 64 kts 199°
2026-05-07 17:27 50.84195 -0.29335 121 ft 63 kts 198°
2026-05-07 17:27 50.83805 -0.29575 11 ft 54 kts 200°
2026-05-07 17:27 50.83425 -0.29804 10 ft 77 kts 202°
2026-05-07 17:27 50.82987 -0.30229 279 ft 74 kts 217°
2026-05-07 17:28 50.82565 -0.30741 499 ft 75 kts 204°
2026-05-07 17:28 50.82179 -0.30683 688 ft 77 kts 115°
2026-05-07 17:28 50.82043 -0.29826 861 ft 83 kts 109°
2026-05-07 17:28 50.81859 -0.29047 964 ft 81 kts 114°
2026-05-07 17:29 50.81657 -0.28263 1056 ft 71 kts 117°
2026-05-07 17:29 50.81449 -0.27514 1049 ft 74 kts 97°
2026-05-07 17:29 50.81837 -0.26936 971 ft 88 kts 25°
2026-05-07 17:29 50.82389 -0.26668 994 ft 88 kts 19°
2026-05-07 17:30 50.82981 -0.26503 1075 ft 83 kts
2026-05-07 17:30 50.83568 -0.26349 1095 ft 85 kts 19°
2026-05-07 17:30 50.84127 -0.26071 1142 ft 84 kts 21°
2026-05-07 17:30 50.84693 -0.26197 1090 ft 98 kts 316°
2026-05-07 17:31 50.85042 -0.26977 1162 ft 74 kts 310°
2026-05-07 17:31 50.85357 -0.27691 846 ft 88 kts 294°
2026-05-07 17:31 50.85265 -0.28564 419 ft 85 kts 220°
2026-05-07 17:31 50.84817 -0.28935 290 ft 65 kts 200°
2026-05-07 17:32 50.84424 -0.29205 181 ft 61 kts 197°
2026-05-07 17:32 50.84026 -0.29451 60 ft 60 kts 194°
2026-05-07 17:32 50.83694 -0.29639 9 ft 40 kts 203°
2026-05-07 17:32 50.83449 -0.29795 10 ft 71 kts 205°
2026-05-07 17:33 50.82907 -0.30389 346 ft 70 kts 210°
2026-05-07 17:33 50.82453 -0.30766 572 ft 71 kts 196°
2026-05-07 17:33 50.81967 -0.30643 678 ft 85 kts 128°
2026-05-07 17:33 50.81693 -0.29886 555 ft 116 kts 159°
2026-05-07 17:34 50.81091 -0.29214 753 ft 105 kts 145°
2026-05-07 17:34 50.80688 -0.28415 885 ft 90 kts 103°
2026-05-07 17:34 50.80874 -0.27519 940 ft 89 kts 53°
2026-05-07 17:34 50.81421 -0.26993 969 ft 90 kts 26°
2026-05-07 17:35 50.82024 -0.26751 1016 ft 88 kts 14°
2026-05-07 17:35 50.82634 -0.26630 1020 ft 89 kts 10°
2026-05-07 17:35 50.83227 -0.26536 1033 ft 87 kts 11°
2026-05-07 17:35 50.83832 -0.26456 1040 ft 84 kts
2026-05-07 17:36 50.84437 -0.26339 1001 ft 87 kts 14°
2026-05-07 17:36 50.85043 -0.26388 908 ft 97 kts 333°
2026-05-07 17:36 50.85337 -0.27265 932 ft 87 kts 283°
2026-05-07 17:36 50.85423 -0.28168 678 ft 82 kts 260°
2026-05-07 17:37 50.85066 -0.28785 337 ft 75 kts 208°
2026-05-07 17:37 50.84630 -0.29086 180 ft 63 kts 198°
2026-05-07 17:37 50.84242 -0.29308 115 ft 55 kts 199°
2026-05-07 17:37 50.83896 -0.29517 17 ft 46 kts 202°
2026-05-07 17:38 50.83725 -0.29655 10 ft 12 kts 247°
2026-05-07 17:38 50.83714 -0.29665 9 ft 0 kts 155°
2026-05-07 17:39 50.83697 -0.29652 9 ft 7 kts 167°
2026-05-07 17:39 50.83591 -0.29704 9 ft 22 kts 202°
2026-05-07 17:39 50.83427 -0.29806 9 ft 26 kts 207°
2026-05-07 17:40 50.83299 -0.29890 9 ft 12 kts 202°
2026-05-07 17:40 50.83241 -0.29873 9 ft 8 kts 86°
2026-05-07 17:40 50.83258 -0.29810 9 ft 4 kts 63°
2026-05-07 17:40 50.83273 -0.29766 9 ft 5 kts 62°
2026-05-07 17:41 50.83294 -0.29699 9 ft 9 kts 64°
2026-05-07 17:41 50.83335 -0.29574 9 ft 16 kts 65°
2026-05-07 17:41 50.83390 -0.29396 9 ft 16 kts 63°
2026-05-07 17:41 50.83434 -0.29253 9 ft 12 kts 72°
2026-05-07 17:42 50.83453 -0.29144 9 ft 8 kts 74°
2026-05-07 17:42 50.83458 -0.29074 9 ft 4 kts 109°
2026-05-07 17:42 50.83437 -0.29062 9 ft 2 kts 203°
2026-05-07 17:42 50.83426 -0.29073 9 ft 0 kts 232°
2026-05-07 17:43 50.83423 -0.29084 9 ft 2 kts 258°
2026-05-07 17:43 50.83422 -0.29096 9 ft 0 kts 265°
2026-05-07 17:43 50.83425 -0.29096 9 ft 0 kts 76°